Home > Weather > Ahvaz > Past weeks

Flag for Iran Past Weather in Ahvaz, Iran — Yesterday and Last 2 Weeks

Now
117 °F

Sunny.


Feels Like: 111 °F
Forecast: 88 / 117 °F
Wind: 9 mph from Southwest

Location: Ahwaz

Current Time: Aug 28, 2016 at 6:39:57 PM

Latest Report: Aug 28, 2016 at 6:00 PM


Visibility: 10 mi

Pressure: 29.56 "Hg

Humidity: 9%

Dew Point: 45 °F

Location of AhvazLocation

Past Weather in Ahvaz — Graph

°F

Ahvaz Temperature Yesterday

Maximum temperature yesterday: 120 °F (at 3:56 PM)
Minimum temperature yesterday: 88 °F (at 2:30 AM)
Average temperature yesterday: 104 °F

High & Low Weather Summary for the Past Weeks

 TemperatureHumidityPressure
High122 °F (Aug 14, 4:30 PM)75% (Aug 26, 7:53 AM)29.68 "Hg (Aug 26, 7:53 AM)
Low81 °F (Aug 19, 7:30 AM)5% (Aug 15, 4:30 PM)29.36 "Hg (Aug 17, 5:30 PM)
Average103 °F21%29.52 "Hg
* Reported Aug 13 5:30 PM — Aug 28 5:30 PM, Ahvaz, Weather by CustomWeather, © 2016

Note: Actual official high and low records may vary slightly from our data, if they occured in-between our weather recording intervals... More about our weather records

Advertising

Ahvaz Weather History for the Previous 24 Hours

Scroll right to see more
 ConditionsComfort  
Time TempWeatherWind HumidityBarometerVisibility
5:30 PM
Sun, Aug 28
118 °FSunny.9 mph9%29.56 "Hg10 mi
5:00 PM118 °FSunny.9 mph8%29.56 "Hg10 mi
4:30 PM117 °FSunny.9 mph10%29.56 "Hg10 mi
3:55 PM118 °FSunny.9 mph11%29.56 "Hg10 mi
3:30 PM118 °FSunny.9 mph11%29.59 "Hg10 mi
2:55 PM118 °FSunny.9 mph11%29.59 "Hg10 mi
2:30 PM120 °FSunny.7 mph9%29.59 "Hg10 mi
2:00 PM120 °FSunny.5 mph9%29.62 "Hg10 mi
1:30 PM118 °FSunny.7 mph12%29.62 "Hg10 mi
12:56 PM117 °FSunny.7 mph11%29.62 "Hg10 mi
12:30 PM115 °FSunny.7 mph12%29.65 "Hg10 mi
11:56 AM113 °FSunny.9 mph12%29.65 "Hg10 mi
11:30 AM111 °FSunny.7 mph13%29.65 "Hg10 mi
10:56 AM109 °FSunny.7 mph16%29.65 "Hg10 mi
10:30 AM104 °FSunny.5 mph19%29.65 "Hg10 mi
9:55 AM102 °FSunny.2 mph20%29.65 "Hg10 mi
9:30 AM100 °FClear.2 mph20%29.65 "Hg4 mi
9:00 AM97 °FClear.2 mph20%29.65 "Hg4 mi
8:30 AM95 °FClear.2 mph25%29.62 "Hg5 mi
8:00 AM91 °FClear.5 mph23%29.59 "Hg10 mi
7:30 AM88 °FClear.2 mph27%29.59 "Hg10 mi
6:30 AM86 °FClear.2 mph29%29.59 "Hg10 mi
5:30 AM88 °FClear.2 mph29%29.56 "Hg10 mi
4:30 AM86 °FClear.2 mph31%29.59 "Hg10 mi
3:30 AM88 °FClear.2 mph29%29.59 "Hg10 mi
2:27 AM88 °FClear.2 mph29%29.59 "Hg10 mi
1:28 AM93 °FClear.2 mph23%29.59 "Hg10 mi
12:57 AM95 °FClear.2 mph20%29.59 "Hg10 mi
12:30 AM99 °FClear.2 mph17%29.59 "Hg10 mi
12:00 AM100 °FClear.5 mph17%29.59 "Hg10 mi
11:27 PM
Sat, Aug 27
102 °FClear.5 mph16%29.59 "Hg10 mi
11:00 PM102 °FClear.5 mph17%29.59 "Hg10 mi
10:30 PM104 °FClear.5 mph16%29.59 "Hg10 mi
9:59 PM104 °FClear.5 mph16%29.59 "Hg10 mi
9:30 PM106 °FClear.5 mph13%29.56 "Hg10 mi
9:00 PM106 °FSunny.5 mph13%29.56 "Hg10 mi
8:30 PM108 °FSunny.5 mph14%29.56 "Hg10 mi
8:00 PM108 °FSunny.5 mph16%29.56 "Hg10 mi
7:30 PM113 °FSunny.5 mph15%29.56 "Hg10 mi
6:56 PM113 °FSunny.7 mph15%29.56 "Hg10 mi
6:30 PM115 °FSunny.5 mph16%29.56 "Hg10 mi
Weather by CustomWeather, © 2016

See weather overviewHow to use our weather pages